Showing default

MOLNIYA 2-10, 7376

Orbit data source: Space-Track

MOLNIYA 2-10, 7376 is a payload satellite owned by GUKOS RVSN (CIS) in HEO that was launched on Tue, 23 Jul 1974 UTC via an MOLNIYA 8K78M launch vehicle from the Plesetsk Missile And Space Complex (PKMTR). Payload-class satellites include a variety of spacecraft equipped with specific instruments for various scientific and technological missions. These include communications satellites like Starlink; space stations such as the ISS; scientific satellites like the Hubble; Earth observation satellites from companies like Planet Labs, Umbra, and HawkEye 360; GPS; miniature CubeSats for education and research; and military/defense satellites.

Loading next visibility...
Identifier
7376, 1974-056A
Orbit
HEO
Last TLE update
1 month ago
Origin
Manufacturer
OKB-10
Mission
Defense Communications
Bus & Motor
MOLNIYA-2, Unknown motor
Mass
~1,650 kg wet, ~1,620 kg dry
Launch date (UTC)
1974-07-23 (51 years ago)
Launch vehicle
MOLNIYA 8K78M
Launch site
Plesetsk Missile And Space Complex (PKMTR)
Object type
Payload
Rocket body
Debris
Shape & HBR
Cyl + 6 Pan, 8.2 m
Radar Cross Section
15.101 m², Large (>1 m²)

Expand to show TLE details & history

TLE from 1 month ago
0 MOLNIYA 2-10
1 07376U 74056A   25154.81578541 -.00000220  00000-0  00000-0 0  9996
2 07376  65.3637 339.2806 6816946 274.5034  16.6975  2.01055760372126
Epoch: 2025-06-03T19:34Z
TLE epoch observation values (Epoch: 2025-06-03T19:34:43.859Z)
Latitude
0.00011°
Longitude
153.09647°
Altitude
7,090.731 km
Speed
6.645 km/s
True Right ascension
22h 37m 08s
True Declination
0° 00' 00"
Sunlit
Object was in daylight at epoch
Visualization orbit readout
Latitude
64.6821°
Longitude
-135.00464°
Altitude
36,761.989 km
Speed
1.858 km/s
Apparent Right ascension
04h 10m 45s
Apparent Declination
58° 35' 01"
Sunlit
Object is in daylight
Visualization observer readout
Local Sidereal Time
19:25:33
Azimuth
24.104° NE
Elevation
16.484°
Doppler factor
1
Orbital elements
Apogee altitude
38,213.656 km
Perigee altitude
2,062.045 km
Semi-major axis
26,515.987 km
Eccentricity
0.68169
Inclination
65.3637°
RAAN
339.2806°
Arg. of periapsis
274.5034°
True anomaly
Unknown
Mean anomaly
16.6975°
Eccentric anomaly
Unknown
Mean motion
0.50267 °/min
Orbital period
716.18 mins
BSTAR
0
Loading maneuver chart data...
Loading SW <> Apogee altitude chart data...
Loading historical data...
Loading historical data...
Loading historical data...
Loading historical data...
Loading historical data...
Loading historical data...
Loading historical data...
Other satellites on launch #56 in the year 1974 (1974-07-23 UTC)

MOLNIYA 2-10 Visibility forecast

Observer location: undefined°, undefined°

Span
Click to sort rows by Start time (UTC) header in descending order
Start Az.
Max El. time (UTC)
Max El. Az.
Max El.
End time (UTC)
End Az.
179 mins2025-07-08 07:20:01.200Z24.11° NE2025-07-08 07:35:01.200Z23.477° NE15.89°2025-07-08 10:19:01.200Z25.003° NE
606 mins2025-07-08 15:34:01.200Z275.66° WNW2025-07-08 22:15:01.200Z319.57° NNW35.785°2025-07-09 01:40:01.200Z254.934° W
116 mins2025-07-09 05:24:01.200Z32.296° NE2025-07-09 07:20:01.200Z23.499° NE15.643°2025-07-09 07:20:01.200Z23.499° NE
|